BCS4127 LOWL-EDDP

Flight info

Callsign BCS4127
Flight time N/A
Altitude 24000
Route LIDSI DCT LAMSI L604 ANELA M726 LASGA T953 VOCIM T954 GOXLI GOXLI1V
Aircraft B73F/M-SDE2E3FGHIRWXY/LB1

Departure

Time 2026-04-26 17:31
Airport Linz-Hörsching Airport (LOWL)

Arrival

Time N/A
Airport Leipzig/Halle Airport (EDDP)
Time Latitude Longitude Altitude Speed Heading
2026-04-26 17:13 48.23007 14.18199 972 ft 0 kts 175°
2026-04-26 17:14 48.23008 14.18199 985 ft 0 kts 175°
2026-04-26 17:23 48.23023 14.18197 989 ft 3 kts 172°
2026-04-26 17:23 48.23042 14.18191 985 ft 3 kts 163°
2026-04-26 17:23 48.23061 14.18180 985 ft 3 kts 144°
2026-04-26 17:23 48.23073 14.18160 985 ft 3 kts 101°
2026-04-26 17:24 48.23074 14.18146 985 ft 1 kts 85°
2026-04-26 17:24 48.23074 14.18143 985 ft 0 kts 85°
2026-04-26 17:25 48.23074 14.18147 985 ft 2 kts 85°
2026-04-26 17:26 48.23077 14.18199 990 ft 7 kts 85°
2026-04-26 17:26 48.23087 14.18292 990 ft 11 kts 80°
2026-04-26 17:26 48.23103 14.18422 993 ft 14 kts 80°
2026-04-26 17:26 48.23122 14.18580 991 ft 16 kts 79°
2026-04-26 17:27 48.23142 14.18749 986 ft 16 kts 80°
2026-04-26 17:27 48.23159 14.18909 992 ft 15 kts 81°
2026-04-26 17:27 48.23167 14.19061 985 ft 14 kts 87°
2026-04-26 17:27 48.23172 14.19210 988 ft 14 kts 86°
2026-04-26 17:28 48.23179 14.19351 989 ft 13 kts 86°
2026-04-26 17:28 48.23184 14.19486 990 ft 13 kts 87°
2026-04-26 17:28 48.23188 14.19620 985 ft 13 kts 87°
2026-04-26 17:28 48.23194 14.19764 991 ft 14 kts 79°
2026-04-26 17:29 48.23275 14.19818 985 ft 14 kts 359°
2026-04-26 17:29 48.23309 14.19818 984 ft 15 kts
2026-04-26 17:29 48.23364 14.19989 982 ft 16 kts 86°
2026-04-26 17:29 48.23373 14.20210 981 ft 17 kts 86°
2026-04-26 17:30 48.23378 14.20330 980 ft 18 kts 86°
2026-04-26 17:30 48.23360 14.20474 987 ft 4 kts 110°
2026-04-26 17:30 48.23377 14.20491 980 ft 3 kts 343°
2026-04-26 17:30 48.23382 14.20461 980 ft 4 kts 266°
2026-04-26 17:31 48.23378 14.20367 986 ft 30 kts 266°
2026-04-26 17:31 48.23352 14.19574 985 ft 119 kts 267°
2026-04-26 17:31 48.23292 14.17969 1144 ft 178 kts 267°
2026-04-26 17:31 48.23221 14.16098 2128 ft 182 kts 268°
2026-04-26 17:32 48.23153 14.14199 3247 ft 179 kts 269°
2026-04-26 17:32 48.23103 14.12205 3969 ft 207 kts 270°
2026-04-26 17:32 48.23030 14.09885 4366 ft 237 kts 270°
2026-04-26 17:32 48.22938 14.07374 5152 ft 247 kts 269°
2026-04-26 17:33 48.22848 14.04723 5891 ft 260 kts 271°
2026-04-26 17:33 48.22741 14.01992 6997 ft 263 kts 268°
2026-04-26 17:33 48.22652 13.99220 8045 ft 268 kts 269°
2026-04-26 17:34 48.22603 13.93530 10106 ft 275 kts 282°
2026-04-26 17:34 48.23275 13.90794 10806 ft 292 kts 300°
2026-04-26 17:34 48.24607 13.88297 11050 ft 322 kts 317°
2026-04-26 17:34 48.26583 13.86440 11408 ft 346 kts 331°
2026-04-26 17:35 48.28772 13.84830 12218 ft 352 kts 333°
2026-04-26 17:35 48.30972 13.83279 13132 ft 356 kts 333°
2026-04-26 17:35 48.33230 13.81692 13943 ft 361 kts 333°
2026-04-26 17:35 48.35544 13.80049 14768 ft 365 kts 333°
2026-04-26 17:36 48.37823 13.78415 15548 ft 370 kts 333°
2026-04-26 17:36 48.40160 13.76725 16298 ft 374 kts 333°
2026-04-26 17:36 48.42517 13.75012 17061 ft 377 kts 333°
2026-04-26 17:36 48.44892 13.73280 17782 ft 381 kts 333°
2026-04-26 17:37 48.47288 13.71528 18470 ft 385 kts 333°
2026-04-26 17:37 48.49713 13.69753 19111 ft 389 kts 333°
2026-04-26 17:37 48.52169 13.67955 19733 ft 394 kts 332°
2026-04-26 17:38 48.57111 13.64328 20178 ft 396 kts 332°
2026-04-26 17:38 48.59604 13.62496 20196 ft 399 kts 332°
2026-04-26 17:38 48.62096 13.60663 20190 ft 398 kts 332°
2026-04-26 17:38 48.64537 13.58699 20199 ft 396 kts 326°
2026-04-26 17:39 48.66753 13.56245 20194 ft 395 kts 317°
2026-04-26 17:39 48.68698 13.53395 20206 ft 394 kts 314°
2026-04-26 17:39 48.70630 13.50455 20200 ft 394 kts 314°
2026-04-26 17:39 48.72561 13.47508 20202 ft 394 kts 314°
2026-04-26 17:40 48.74496 13.44570 20207 ft 394 kts 314°
2026-04-26 17:40 48.75805 13.42590 20196 ft 394 kts 314°
2026-04-26 17:40 48.78387 13.38699 20200 ft 395 kts 314°
2026-04-26 17:40 48.80337 13.35763 20203 ft 395 kts 314°
2026-04-26 17:41 48.82285 13.32827 20204 ft 395 kts 314°
2026-04-26 17:41 48.84238 13.29886 20210 ft 395 kts 314°
2026-04-26 17:41 48.86190 13.26939 20218 ft 395 kts 314°
2026-04-26 17:41 48.88139 13.23995 20215 ft 396 kts 314°
2026-04-26 17:42 48.90091 13.21038 20216 ft 396 kts 314°
2026-04-26 17:42 48.92036 13.18083 20212 ft 396 kts 314°
2026-04-26 17:42 48.93984 13.15121 20209 ft 396 kts 314°